FW8253 Weather Reports


Display with metric or nautical units.
time (UTC)temp
F
wind
direction
speed
MPH
gust
MPH
rain 1hr
in
rain 24hr
in
rain mn
in
humidity
%
barometer
mb
20260507225429 75 236 0.0 0.0 0.00 0.05 0.05 90 1010.7
20260507224925 75 277 0.0 0.0 0.00 0.05 0.05 90 1010.9
20260507224421 75 168 0.0 0.0 0.00 0.05 0.05 87 1011.0
20260507223918 75 229 0.0 0.0 0.00 0.05 0.05 88 1011.0
20260507223414 75 225 0.0 0.0 0.00 0.05 0.05 89 1011.0
20260507222911 75 239 0.0 0.0 0.00 0.05 0.05 87 1011.0
20260507222408 76 236 0.0 0.0 0.00 0.05 0.05 89 1011.1
20260507221905 76 175 0.0 0.0 0.00 0.05 0.05 89 1010.7
20260507221401 76 242 0.0 0.0 0.00 0.05 0.05 88 1010.7
20260507220857 76 241 0.0 0.0 0.00 0.05 0.05 87 1010.7
20260507220355 76 231 0.0 0.0 0.00 0.05 0.05 90 1010.7
20260507215851 77 229 0.0 0.0 0.00 0.05 0.05 91 1010.6
20260507215348 77 213 0.0 0.0 0.00 0.05 0.05 88 1010.6
20260507214845 78 259 0.0 0.0 0.00 0.05 0.05 87 1011.0
20260507214343 79 259 0.0 0.0 0.00 0.05 0.05 84 1010.7
20260507213838 78 239 0.0 0.0 0.00 0.05 0.05 86 1010.9
20260507213335 78 235 0.0 0.0 0.00 0.05 0.05 86 1010.6
20260507212831 78 225 0.0 0.0 0.00 0.05 0.05 85 1010.9
20260507212327 77 253 0.0 0.0 0.00 0.05 0.05 90 1010.9
20260507211824 77 63 0.0 0.0 0.00 0.05 0.05 91 1010.9
20260507211321 75 230 0.0 0.0 0.00 0.05 0.05 93 1010.8
20260507210818 75 221 0.0 0.0 0.00 0.05 0.05 94 1011.0
20260507210315 75 220 0.0 0.0 0.00 0.05 0.05 96 1011.0
20260507205811 74 219 0.0 0.0 0.00 0.05 0.05 98 1011.0
20260507205308 74 217 0.0 0.0 0.00 0.05 0.05 97 1011.0
20260507204804 74 219 0.0 0.0 0.00 0.05 0.05 97 1011.0
20260507204302 74 220 0.0 0.0 0.00 0.05 0.05 97 1011.1
20260507203800 74 208 0.0 0.0 0.00 0.05 0.05 97 1011.0
20260507203258 74 208 0.0 0.0 0.00 0.05 0.05 97 1011.0
20260507202753 73 208 0.0 0.0 0.00 0.05 0.05 97 1011.1
20260507202249 73 208 0.0 0.0 0.00 0.05 0.05 97 1011.1
20260507201744 73 208 0.0 0.0 0.00 0.05 0.05 97 1011.1
20260507201241 74 194 0.0 0.0 0.00 0.05 0.05 98 1011.1
20260507200737 74 202 0.0 0.0 0.00 0.05 0.05 97 1011.0
20260507200233 75 190 0.0 0.0 0.00 0.05 0.05 96 1011.3
20260507195730 75 212 0.0 0.0 0.00 0.05 0.05 96 1011.2
20260507195227 75 208 0.0 0.0 0.00 0.05 0.05 95 1011.2
20260507194724 75 234 0.0 0.0 0.00 0.05 0.05 94 1011.1
20260507194220 75 167 0.0 0.0 0.00 0.05 0.05 96 1011.2
20260507193717 75 177 0.0 0.0 0.00 0.05 0.05 96 1011.1
20260507193214 75 226 0.0 0.0 0.00 0.05 0.05 97 1011.0
20260507192710 75 282 0.0 0.0 0.00 0.05 0.05 97 1011.1
20260507192207 75 234 0.0 0.0 0.00 0.05 0.05 97 1011.2
20260507191703 75 202 0.0 0.0 0.00 0.05 0.05 98 1011.3
20260507191200 75 352 0.0 0.0 0.00 0.05 0.05 99 1011.2
20260507190651 74 305 0.0 0.0 0.00 0.05 0.05 99 1011.1
20260507190149 73 251 0.0 0.0 0.00 0.05 0.05 99 1011.1
20260507185647 73 88 0.0 0.0 0.00 0.05 0.05 99 1011.2
20260507185144 74 232 0.0 0.0 0.00 0.05 0.05 99 1011.3
20260507184642 73 200 0.0 0.0 0.00 0.05 0.05 99 1011.2
20260507184140 73 215 0.0 0.0 0.00 0.05 0.05 99 1011.2
20260507183636 72 96 0.0 0.0 0.00 0.05 0.05 99 1011.1
20260507183133 71 234 0.0 0.0 0.00 0.05 0.05 99 1011.4
20260507182629 71 261 0.0 0.0 0.00 0.05 0.05 99 1011.4
20260507182126 72 238 0.0 0.0 0.00 0.05 0.05 99 1011.5
20260507181622 72 278 0.0 0.0 0.00 0.05 0.05 99 1011.3
20260507181118 71 278 0.0 0.0 0.00 0.05 0.05 99 1011.6
20260507180615 70 228 0.0 0.0 0.00 0.05 0.05 99 1011.4
20260507180112 70 231 0.0 0.0 0.00 0.05 0.05 99 1011.3
20260507175608 70 201 0.0 0.0 0.00 0.05 0.05 99 1011.2
20260507175106 70 208 0.0 0.0 0.00 0.05 0.05 99 1010.9
20260507174602 69 214 0.0 0.0 0.00 0.05 0.05 99 1011.3
20260507174100 68 213 0.0 0.0 0.00 0.05 0.05 99 1011.2
20260507173557 68 207 0.0 0.0 0.00 0.05 0.05 99 1011.0
20260507173054 68 206 0.0 0.0 0.00 0.05 0.05 99 1011.8
20260507172550 68 207 0.0 0.0 0.00 0.05 0.05 99 1012.0
20260507172047 68 206 0.0 0.0 0.00 0.05 0.05 99 1011.8
20260507171542 68 207 0.0 0.0 0.00 0.05 0.05 99 1012.0
20260507171040 68 207 0.0 0.0 0.00 0.05 0.05 99 1011.7
20260507170536 68 197 0.0 0.0 0.00 0.05 0.05 99 1011.9
20260507170034 68 194 0.0 0.0 0.00 0.05 0.05 99 1011.4
20260507165529 68 198 0.0 0.0 0.00 0.05 0.05 99 1012.0
20260507165026 68 242 0.0 0.0 0.00 0.05 0.05 99 1012.1
20260507164522 68 212 0.0 0.0 0.00 0.05 0.05 99 1011.9
20260507164019 69 219 0.0 0.0 0.00 0.05 0.05 99 1012.2
20260507163516 69 256 0.0 0.0 0.00 0.05 0.05 99 1012.4
20260507163015 69 334 0.0 0.0 0.00 0.05 0.05 99 1012.4
20260507162509 69 217 0.0 0.0 0.00 0.05 0.05 99 1012.5
20260507162006 69 182 0.0 0.0 0.00 0.05 0.05 99 1012.3
20260507161502 69 241 0.0 0.0 0.00 0.05 0.05 99 1012.3
20260507160959 69 225 0.0 0.0 0.00 0.05 0.05 99 1012.5
20260507160455 69 217 0.0 0.0 0.00 0.05 0.05 99 1012.5
20260507155951 69 143 0.0 0.0 0.00 0.05 0.05 99 1012.4
20260507155447 69 213 0.0 0.0 0.00 0.05 0.05 99 1012.2
20260507154944 69 217 0.0 0.0 0.00 0.05 0.05 99 1012.2
20260507154441 69 245 0.0 0.0 0.00 0.05 0.05 99 1012.2
20260507153938 69 229 0.0 0.0 0.00 0.05 0.05 99 1012.4
20260507153435 69 224 0.0 0.0 0.00 0.05 0.05 99 1012.2
20260507152931 69 240 0.0 0.0 0.00 0.05 0.05 99 1011.8
20260507152427 69 222 0.0 0.0 0.00 0.05 0.05 99 1011.5
20260507151923 69 195 0.0 0.0 0.00 0.05 0.05 99 1011.2
20260507151420 68 201 0.0 0.0 0.00 0.05 0.05 99 1011.3
20260507150917 68 190 0.0 0.0 0.00 0.05 0.05 99 1011.4
20260507150414 68 184 0.0 0.0 0.00 0.05 0.05 99 1011.6
20260507145910 68 166 0.0 0.0 0.00 0.05 0.05 99 1011.7
20260507145406 68 355 0.0 0.0 0.00 0.05 0.05 99 1011.6
20260507144903 68 234 0.0 0.0 0.00 0.05 0.05 99 1011.4
20260507144400 68 229 0.0 0.0 0.00 0.05 0.05 99 1011.9
20260507143857 68 197 0.0 0.0 0.00 0.05 0.05 99 1011.2
20260507143354 68 211 0.0 0.0 0.00 0.05 0.05 99 1011.4
20260507142851 68 210 0.0 0.0 0.00 0.05 0.05 99 1011.1
20260507142347 68 200 0.0 0.0 0.00 0.05 0.05 99 1011.8
20260507141844 68 217 0.0 0.0 0.00 0.05 0.05 99 1012.0
20260507141340 68 215 0.0 0.0 0.00 0.05 0.05 99 1011.8
20260507140837 68 154 0.0 0.0 0.00 0.05 0.05 99 1012.0
20260507140334 68 184 0.0 0.0 0.00 0.05 0.05 99 1012.4
20260507135832 68 205 0.0 0.0 0.00 0.05 0.05 99 1012.4
20260507135328 68 182 0.0 0.0 0.00 0.05 0.05 99 1012.3
20260507134825 68 182 0.0 0.0 0.00 0.05 0.05 99 1011.8
20260507134321 68 219 0.0 0.0 0.00 0.05 0.05 99 1011.9
20260507133817 68 213 0.0 0.0 0.00 0.05 0.05 99 1012.6
20260507133313 68 205 0.0 0.0 0.00 0.05 0.05 99 1012.7
20260507132812 68 252 0.0 0.0 0.00 0.05 0.05 99 1012.7
20260507132308 68 225 0.0 0.0 0.00 0.05 0.05 99 1011.9
20260507131805 68 221 0.0 0.0 0.00 0.05 0.05 99 1012.3
20260507131302 68 234 0.0 0.0 0.00 0.05 0.05 99 1012.0
20260507130758 68 237 0.0 0.0 0.00 0.05 0.05 99 1012.1
20260507130256 68 206 0.0 0.0 0.00 0.05 0.05 99 1012.0
20260507125755 68 229 0.0 0.0 0.00 0.05 0.05 99 1012.2
20260507125252 68 211 0.0 0.0 0.00 0.05 0.05 99 1012.0
20260507124749 67 214 0.0 0.0 0.00 0.05 0.05 99 1011.8
20260507124245 67 215 0.0 0.0 0.00 0.05 0.05 99 1012.1
20260507123744 67 216 0.0 0.0 0.00 0.05 0.05 99 1012.1
20260507123241 67 211 0.0 0.0 0.00 0.05 0.05 99 1011.7
20260507122736 67 223 0.0 0.0 0.00 0.05 0.05 99 1011.7
20260507122232 67 174 0.0 0.0 0.00 0.05 0.05 99 1011.6
20260507121728 67 209 0.0 0.0 0.00 0.05 0.05 99 1011.6
20260507121224 67 112 0.0 0.0 0.00 0.05 0.05 99 1011.4
20260507120720 67 211 0.0 0.0 0.00 0.05 0.05 99 1011.4
20260507120218 67 207 0.0 0.0 0.00 0.05 0.05 99 1010.9
20260507115714 67 188 0.0 0.0 0.00 0.05 0.05 99 1010.8
20260507115209 67 208 0.0 0.0 0.00 0.05 0.05 99 1010.8
20260507114705 67 235 0.0 0.0 0.00 0.05 0.05 99 1011.2
20260507114203 66 228 0.0 0.0 0.00 0.05 0.05 99 1010.6
20260507113700 66 227 0.0 0.0 0.00 0.05 0.05 99 1009.7
20260507113157 66 207 0.0 0.0 0.00 0.05 0.05 99 1010.1
20260507112655 66 180 0.0 0.0 0.00 0.05 0.05 99 1010.7
20260507112151 66 230 0.0 0.0 0.00 0.05 0.05 99 1011.0
20260507111649 66 190 0.0 0.0 0.00 0.05 0.05 99 1010.9
20260507111145 66 5 0.0 0.0 0.00 0.05 0.05 99 1011.2
20260507110641 67 31 0.0 0.0 0.00 0.05 0.05 99 1011.6
20260507110138 67 196 0.0 0.0 0.00 0.05 0.05 99 1012.1
20260507105635 67 194 0.0 0.0 0.00 0.05 0.05 99 1012.1
20260507105131 67 234 0.0 0.0 0.00 0.05 0.05 99 1012.5
20260507104629 67 318 0.0 0.0 0.00 0.05 0.05 99 1012.5
20260507104125 67 193 0.0 0.0 0.00 0.05 0.05 99 1012.0
20260507103621 67 228 0.0 0.0 0.00 0.05 0.05 99 1012.6
20260507103118 67 234 0.0 0.0 0.00 0.05 0.05 99 1012.5
20260507102614 67 225 0.0 0.0 0.00 0.05 0.05 99 1012.8
20260507102110 67 225 0.0 0.0 0.00 0.05 0.05 99 1012.9
20260507101607 67 225 0.0 0.0 0.00 0.05 0.05 99 1012.9
20260507101102 67 225 0.0 0.0 0.00 0.05 0.05 99 1012.9
20260507100600 67 228 0.0 0.0 0.00 0.05 0.05 99 1013.1
20260507100058 67 221 0.0 0.0 0.00 0.05 0.05 99 1012.9
20260507095555 67 215 0.0 0.0 0.00 0.05 0.05 99 1012.7
20260507095052 67 216 0.0 0.0 0.00 0.05 0.05 99 1013.1
20260507094548 67 223 0.0 0.0 0.00 0.05 0.05 99 1012.9
20260507094046 67 208 0.0 0.0 0.00 0.05 0.05 99 1012.5
20260507093543 67 182 0.0 0.0 0.00 0.05 0.05 99 1012.6
20260507093042 67 194 0.0 0.0 0.00 0.05 0.05 99 1012.9
20260507092537 67 204 0.0 0.0 0.00 0.05 0.05 99 1013.0
20260507092034 67 213 0.0 0.0 0.00 0.05 0.05 99 1012.9
20260507091531 67 210 0.0 0.0 0.00 0.05 0.05 99 1013.4
20260507091027 67 0 0.0 0.0 0.00 0.05 0.05 99 1013.6
20260507090523 67 208 0.0 0.0 0.00 0.05 0.05 99 1013.3
20260507090020 67 195 0.0 0.0 0.00 0.05 0.05 99 1013.4
20260507085517 68 179 0.0 0.0 0.00 0.05 0.05 99 1014.0
20260507085014 68 212 0.0 0.0 0.00 0.05 0.05 99 1014.6
20260507084511 68 207 0.0 0.0 0.00 0.05 0.05 99 1014.6
20260507084008 68 233 0.0 0.0 0.00 0.05 0.05 99 1014.6
20260507083504 68 223 0.0 0.0 0.07 0.05 0.05 99 1014.1
20260507083001 68 206 0.0 0.0 0.07 0.05 0.05 99 1014.1
20260507082457 68 217 0.0 0.0 0.07 0.05 0.05 99 1013.4
20260507081953 68 197 0.0 0.0 0.00 0.04 0.04 99 1013.5
20260507081449 68 207 0.0 0.0 0.00 0.04 0.04 99 1013.8
20260507080947 68 220 0.0 0.0 0.00 0.04 0.04 99 1014.1
20260507080442 68 202 0.0 0.0 0.05 0.04 0.04 99 1013.9
20260507075937 68 228 0.0 0.0 0.05 0.04 0.04 99 1013.8
20260507075435 68 195 0.0 0.0 0.00 0.03 0.03 99 1013.7
20260507074931 68 207 0.0 0.0 0.00 0.03 0.03 99 1013.7
20260507074428 68 208 0.0 0.0 0.00 0.03 0.03 99 1013.7
20260507073926 68 202 0.0 0.0 0.00 0.03 0.03 99 1013.8
20260507073422 68 201 0.0 0.0 0.00 0.03 0.03 99 1013.7
20260507072919 68 219 0.0 0.0 0.00 0.03 0.03 99 1013.5
20260507072416 68 206 0.0 0.0 0.07 0.03 0.03 98 1013.2
20260507071914 68 102 0.0 0.0 0.07 0.03 0.03 98 1013.4
20260507071411 69 206 0.0 0.0 0.07 0.02 0.02 97 1013.6
20260507070907 69 7 0.0 0.0 0.07 0.02 0.02 96 1013.8
20260507070405 69 245 0.0 0.0 0.05 0.01 0.01 95 1013.8
20260507065901 69 217 0.0 0.0 0.05 0.01 0.01 94 1014.4
20260507065358 69 187 0.0 0.0 0.00 0.00 0.00 93 1014.0
20260507064855 68 115 0.0 0.0 0.00 0.00 0.00 94 1014.4
20260507064353 69 53 0.0 0.0 0.00 0.00 0.00 92 1014.1
20260507063851 69 198 0.0 0.0 0.00 0.00 0.00 91 1014.1
20260507063348 69 198 0.0 0.0 0.00 0.00 0.00 88 1013.5
20260507062844 69 165 0.0 0.0 0.00 0.00 0.00 86 1013.1
20260507062341 70 165 0.0 0.0 0.00 0.00 0.00 85 1012.8
20260507061839 70 178 0.0 0.0 0.00 0.00 0.00 85 1012.7
20260507061337 70 181 0.0 0.0 0.00 0.00 0.00 84 1012.7
20260507060835 70 180 0.0 0.0 0.00 0.00 0.00 84 1012.6
20260507060332 70 180 0.0 0.0 0.00 0.00 0.00 84 1012.5
20260507055828 70 180 0.0 0.0 0.00 0.00 0.00 83 1012.6
20260507055323 70 180 0.0 0.0 0.00 0.00 0.00 83 1012.7
20260507054820 70 180 0.0 0.0 0.00 0.00 0.00 83 1012.9
20260507054316 70 180 0.0 0.0 0.00 0.00 0.00 83 1012.9
20260507053814 70 181 0.0 0.0 0.00 0.00 0.00 83 1013.4
20260507053312 70 181 0.0 0.0 0.00 0.00 0.00 83 1013.4
20260507052811 70 180 0.0 0.0 0.00 0.00 0.00 83 1013.3
20260507052307 70 190 0.0 0.0 0.00 0.00 0.00 84 1013.7
20260507051805 70 188 0.0 0.0 0.00 0.00 0.00 85 1014.0
20260507051302 70 188 0.0 0.0 0.00 0.00 0.00 84 1014.3
20260507050759 70 188 0.0 0.0 0.00 0.00 0.00 84 1014.2
20260507050255 70 189 0.0 0.0 0.00 0.00 0.00 86 1014.6
20260507045752 71 189 0.0 0.0 0.00 0.00 0.00 83 1014.7
20260507045249 71 189 0.0 0.0 0.00 0.00 0.00 83 1014.5
20260507044746 71 189 0.0 0.0 0.00 0.00 0.00 82 1014.3
20260507044242 71 187 0.0 0.0 0.00 0.00 0.00 81 1014.5
20260507043738 71 194 0.0 0.0 0.00 0.00 0.00 83 1014.7
20260507043235 71 202 0.0 0.0 0.00 0.00 0.00 81 1014.7
20260507042731 71 202 0.0 0.0 0.00 0.00 0.00 81 1014.3
20260507042226 72 202 0.0 0.0 0.00 0.00 0.00 81 1014.6
20260507041724 72 202 0.0 0.0 0.00 0.00 0.00 81 1014.4
20260507041220 72 202 0.0 0.0 0.00 0.00 0.00 80 1014.4
20260507040717 72 202 0.0 0.0 0.00 0.00 0.00 79 1014.4
20260507040213 72 202 0.0 0.0 0.00 0.00 0.00 79 1014.2
20260507035709 72 202 0.0 0.0 0.00 0.00 0.00 78 1014.2
20260507035205 72 202 0.0 0.0 0.00 0.00 0.00 79 1014.1
20260507034702 72 202 0.0 0.0 0.00 0.00 0.00 78 1014.2
20260507034200 72 203 0.0 0.0 0.00 0.00 0.00 79 1014.1
20260507033658 72 202 0.0 0.0 0.00 0.00 0.00 78 1014.2
20260507033155 73 202 0.0 0.0 0.00 0.00 0.00 79 1014.2
20260507032652 73 203 0.0 0.0 0.00 0.00 0.00 79 1014.7
20260507032148 73 203 0.0 0.0 0.00 0.00 0.00 80 1014.6
20260507031645 73 203 0.0 0.0 0.00 0.00 0.00 79 1014.7
20260507031141 73 203 0.0 0.0 0.00 0.00 0.00 78 1014.6
20260507030638 73 203 0.0 0.0 0.00 0.00 0.00 78 1014.6
20260507030136 72 203 0.0 0.0 0.00 0.00 0.00 78 1014.0
20260507025633 72 203 0.0 0.0 0.00 0.00 0.00 77 1014.3
20260507025130 72 203 0.0 0.0 0.00 0.00 0.00 77 1014.2
20260507024628 72 210 0.0 0.0 0.00 0.00 0.00 77 1014.2
20260507024125 72 209 0.0 0.0 0.00 0.00 0.00 77 1013.6
20260507023620 72 210 0.0 0.0 0.00 0.00 0.00 79 1013.5
20260507023118 73 209 0.0 0.0 0.00 0.00 0.00 78 1013.7
20260507022615 72 210 0.0 0.0 0.00 0.00 0.00 78 1013.8
20260507022110 73 223 0.0 0.0 0.00 0.00 0.00 78 1013.7
20260507021607 73 172 0.0 0.0 0.00 0.00 0.00 79 1013.5
20260507021103 73 172 0.0 0.0 0.00 0.00 0.00 79 1013.5
20260507020601 73 172 0.0 0.0 0.00 0.00 0.00 79 1013.6
20260507020057 73 171 0.0 0.0 0.00 0.00 0.00 78 1013.5
20260507015556 73 173 0.0 0.0 0.00 0.00 0.00 79 1013.4
20260507015053 73 173 0.0 0.0 0.00 0.00 0.00 79 1013.3
20260507014549 73 173 0.0 0.0 0.00 0.00 0.00 78 1013.2
20260507014045 73 173 0.0 0.0 0.00 0.00 0.00 77 1013.1
20260507013542 73 173 0.0 0.0 0.00 0.00 0.00 77 1012.8
20260507013039 74 173 0.0 0.0 0.00 0.00 0.00 76 1012.8
20260507012536 74 170 0.0 0.0 0.00 0.00 0.00 76 1012.8
20260507012032 74 170 0.0 0.0 0.00 0.00 0.00 76 1012.7
20260507011530 74 170 0.0 0.0 0.00 0.00 0.00 76 1012.8
20260507011026 74 168 0.0 0.0 0.00 0.00 0.00 76 1012.9
20260507010520 75 175 0.0 0.0 0.00 0.00 0.00 74 1013.3
20260507010017 75 174 0.0 0.0 0.00 0.00 0.00 75 1012.7
20260507005515 75 174 0.0 0.0 0.00 0.00 0.00 73 1012.9
20260507005011 75 183 0.0 0.0 0.00 0.00 0.00 75 1012.8
20260507004508 75 183 0.0 0.0 0.00 0.00 0.00 74 1012.9
20260507004006 76 196 0.0 0.0 0.00 0.00 0.00 73 1013.3
20260507003501 76 196 0.0 0.0 0.00 0.00 0.00 73 1013.3
20260507002955 76 196 0.0 0.0 0.00 0.00 0.00 72 1013.5
20260507002453 77 194 0.0 0.0 0.00 0.00 0.00 73 1013.7
20260507001949 77 194 0.0 0.0 0.00 0.00 0.00 73 1013.5
20260507001446 77 193 0.0 0.0 0.00 0.00 0.00 74 1013.3
20260507000943 78 231 0.0 0.0 0.00 0.00 0.00 73 1013.6
20260507000439 78 225 0.0 0.0 0.00 0.00 0.00 72 1013.5
20260506235934 79 225 0.0 0.0 0.00 0.00 0.00 71 1013.6
20260506235432 79 225 0.0 0.0 0.00 0.00 0.00 71 1013.4
20260506234927 80 224 0.0 0.0 0.00 0.00 0.00 70 1013.6
20260506234426 80 225 0.0 0.0 0.00 0.00 0.00 70 1013.6
20260506233923 80 223 0.0 0.0 0.00 0.00 0.00 69 1013.5
20260506233419 81 227 0.0 0.0 0.00 0.00 0.00 68 1013.5
20260506232916 81 200 0.0 0.0 0.00 0.00 0.00 66 1013.1
20260506232412 82 218 0.0 0.0 0.00 0.00 0.00 65 1013.4
20260506231908 82 217 0.0 0.0 0.00 0.00 0.00 65 1013.3
20260506231406 82 216 0.0 0.0 0.00 0.00 0.00 64 1013.4
20260506230903 83 216 0.0 0.0 0.00 0.00 0.00 65 1013.3
20260506230359 82 216 0.0 0.0 0.00 0.00 0.00 66 1013.3
20260506225856 83 216 0.0 0.0 0.00 0.00 0.00 65 1013.2